Location: Kellogg
(38.0159°N, 90.0546°W)
Time: 13:27:40
(UTC+00:00)

Envisat - Pass Details

Date: 16 August 2024
Orbit: 762 x 764 km, 98.3° (Epoch: 16 September)

Event Time Altitude Azimuth Distance (km) Brightness Sun altitude
Rises 09:43:52 0° 5° (N) 3,234 6.8 -17.3°
Reaches altitude 10° 09:46:15 10° 359° (N) 2,303 5.9 -16.9°
Maximum altitude 09:51:02 43° 289° (WNW) 1,060 3.4 -16.1°
Enters shadow 09:53:31 25° 233° (SW) 1,499 3.9 -15.7°
